Location: Boiro
(42.6475°N, 8.8834°W)
Time: 00:47:05
(UTC+02:00)

AO-73 - Visible Passes

Search period start: 25 April 2024 00:00
Search period end: 05 May 2024 00:00
Orbit: 561 x 627 km, 97.7° (Epoch: 23 April)

Date Brightness Start Highest point End Pass type
(mag) Time Alt. Az. Time Alt. Az. Time Alt. Az.
25 Apr ? 04:39:15 10° NE 04:41:51 15° E 04:43:53 12° ESE visible
25 Apr ? 06:13:28 10° N 06:17:43 51° WNW 06:20:31 20° SW visible
26 Apr ? 04:48:04 10° NE 04:51:13 19° E 04:53:22 14° SE visible
26 Apr ? 06:22:51 10° N 06:26:58 40° WNW 06:29:59 17° SW visible
27 Apr ? 04:57:00 10° NE 05:00:33 24° E 05:02:49 16° SE visible
27 Apr ? 06:32:15 10° N 06:36:10 32° WNW 06:39:26 13° SW visible
28 Apr ? 05:06:00 10° NE 05:09:50 29° E 05:12:14 18° SE visible
28 Apr ? 06:41:40 10° NNW 06:45:19 26° WNW 06:48:51 11° SW visible
29 Apr ? 05:15:01 10° NNE 05:19:05 36° E 05:21:37 19° SSE visible
29 Apr ? 06:51:06 10° NNW 06:54:26 22° WNW 06:57:46 10° WSW visible
30 Apr ? 05:24:04 10° NNE 05:28:17 46° E 05:30:58 20° SSE visible
30 Apr ? 07:00:34 10° NNW 07:03:31 18° WNW 07:06:26 10° WSW visible
01 May ? 05:33:07 10° NNE 05:37:27 58° E 05:40:17 20° S visible
02 May ? 05:42:11 10° NNE 05:46:34 74° E 05:49:34 20° S visible
03 May ? 05:51:16 10° NNE 05:55:39 88° WNW 05:58:49 18° SSW visible
04 May ? 04:27:31 10° ENE 04:28:38 11° E 04:29:45 10° ESE visible
04 May ? 06:00:20 10° N 06:04:42 70° WNW 06:08:03 16° SSW visible
